Regional Weather Roundup
Issued by NWS

Home | Current Version | Previous Version | Text Only | Print | Product List | Glossary Off
Versions: 1 2 3 4 5 6 7 8 9 10 11 12 13 14 15 16 17 18 19 20 21 22 23 24 25 26 27 28 29 30 31 32 33 34 35 36 37 38 39 40 41 42 43 44 45 46 47 48 49 50

339
ASUS43 KDTX 011810
RWRMI
MICHIGAN HOURLY REGIONAL WEATHER ROUNDUP
NATIONAL WEATHER SERVICE DETROIT/PONTIAC MI
100 PM EST WED MAR 01 2017

NOTE: "FAIR" INDICATES FEW OR NO CLOUDS BELOW 12,000 FEET WITH NO
SIGNIFICANT WEATHER AND/OR OBSTRUCTION TO VISIBILITY.

MIZ047>049-052>055-059>063-066>070-074>076-081>083-011900-
SOUTHEAST LOWER MICHIGAN

CITY           SKY/WX    TMP DP  RH WIND       PRES   REMARKS
ADRIAN         LGT RAIN  53  51  93 W15G30    29.39F
6HR MIN TEMP:  50; 6HR MAX TEMP:  56; 6HR PCP: TRACE;

ALMA           CLOUDY    41  40  97 NE3       29.32F
ANN ARBOR      CLOUDY    54  51  90 SW18G24   29.35F
BAD AXE        LGT RAIN  38  38  99 N6        29.32F WCI  33
6HR MIN TEMP:  38; 6HR MAX TEMP:  40;

CARO           LGT RAIN  42  42  99 CALM      29.30F
DETROIT CITY   CLOUDY    56  52  86 SW15G21   29.34F
6HR MIN TEMP:  49; 6HR MAX TEMP:  56;

DETROIT        CLOUDY    57  51  80 SW20G29   29.36F
6HR MIN TEMP:  50; 6HR MAX TEMP:  57;

FLINT          CLOUDY    53  51  93 SW12G23   29.31F
6HR MIN TEMP:  49; 6HR MAX TEMP:  53; 6HR PCP:  0.01;

GROSSE ILE     CLOUDY    58  50  76 SW17G30   29.35F
6HR MIN TEMP:  43; 6HR MAX TEMP:  58;

HILLSDALE      CLOUDY    50  45  81 W17G29    29.39S
HOWELL         CLOUDY    53  49  85 SW15G21   29.33F
6HR MIN TEMP:  49; 6HR MAX TEMP:  53;


CITY           SKY/WX    TMP DP  RH WIND       PRES   REMARKS
JACKSON        CLOUDY    53  46  77 W21G36    29.36S
6HR MIN TEMP:  51; 6HR MAX TEMP:  54; 6HR PCP:  0.01;

LAMBERTVILLE   PTSUNNY   60  50  68 SW18G31   29.38F
6HR MIN TEMP:  52; 6HR MAX TEMP:  61;

LANSING        CLOUDY    51  45  79 W22G29    29.34S
6HR MIN TEMP:  50; 6HR MAX TEMP:  53; 6HR PCP: TRACE;

LAPEER         DRIZZLE   53  51  93 SW12G18   29.31F
6HR MIN TEMP:  49; 6HR MAX TEMP:  53;

MASON          CLOUDY    53  49  84 SW15G25   29.34S
MONROE         CLOUDY    60  53  76 MISG      29.35F
6HR MIN TEMP:  50; 6HR MAX TEMP:  60;

MT. CLEMENS    CLOUDY    56  52  88 SW16G23   29.31F
6HR MIN TEMP:  51; 6HR MAX TEMP:  56;

PONTIAC        CLOUDY    52  50  93 SW10      29.31F
6HR MIN TEMP:  50; 6HR MAX TEMP:  52; 6HR PCP:  0.01;

PORT HOPE        N/A     36  36 100 NW7       29.32F WCI  30
6HR MIN TEMP:  36; 6HR MAX TEMP:  38; 6HR PCP:  0.02;

PORT HURON     LGT RAIN  50  50 100 SW6       29.33F
TRI CITIES     LGT RAIN  38  37  97 NE14      29.33F FOG     WCI  30
6HR MIN TEMP:  38; 6HR MAX TEMP:  45; 6HR PCP:  0.08;

MIDLAND        DRIZZLE   38  36  93 NE8G17    29.33F WCI  32
6HR MIN TEMP:  38; 6HR MAX TEMP:  45;

TROY           RAIN      55  50  83 SW14      29.35F
SAGINAW HB     RAIN      39  36  87 N8        29.31F WCI  34
$$
MIZ043>046-050>051-056>058-064>065-071>073-077>080-011900-
SOUTHWEST LOWER MICHIGAN

CITY           SKY/WX    TMP DP  RH WIND       PRES   REMARKS
BATTLE CREEK   CLOUDY    44  42  93 W17G31    29.42R
6HR MIN TEMP:  44; 6HR MAX TEMP:  52; 6HR PCP: TRACE;

BENTON HARBOR  CLOUDY    36  34  92 NW15G28   29.54R WCI  27
6HR MIN TEMP:  36; 6HR MAX TEMP:  53; 6HR PCP:  0.02;

BIG RAPIDS     MIX PCPN  38  38  97 N9        29.32F WCI  32
6HR MIN TEMP:  38; 6HR MAX TEMP:  43; 6HR PCP:  0.03;

COLDWATER      CLOUDY    49  46  90 W26G40    29.42R
6HR MIN TEMP:  49; 6HR MAX TEMP:  54;

FREMONT        DRIZZLE   38  38 100 NW15G21   29.37R WCI  29
HOLLAND        MIX PCPN  37  34  89 W20G33    29.45R WCI  27
6HR MIN TEMP:  37; 6HR MAX TEMP:  46; 6HR PCP: TRACE;

GRAND RAPIDS   CLOUDY    40  38  93 SW25      29.39R WCI  29
6HR MIN TEMP:  40; 6HR MAX TEMP:  50; 6HR PCP:  0.01;

IONIA          CLOUDY    44  43  94 SW26G35   29.34S
6HR MIN TEMP:  44; 6HR MAX TEMP:  50; 6HR PCP:  0.01;

KALAMAZOO      CLOUDY    41  36  82 W24G30    29.46R
6HR MIN TEMP:  41; 6HR MAX TEMP:  53; 6HR PCP: TRACE;

LUDINGTON      LGT SNOW  31  30  96 N12G22    29.42S VSB 1   WCI  22
6HR MIN TEMP:  31; 6HR MAX TEMP:  38; 6HR PCP:  0.03;

MARSHALL       CLOUDY    49  46  88 W23G32    29.39R
6HR MIN TEMP:  49; 6HR MAX TEMP:  53;

MOUNT PLEASANT RAIN      39  39  99 NE6       29.32F WCI  35
6HR MIN TEMP:  39; 6HR MAX TEMP:  44; 6HR PCP:  0.09;

MUSKEGON       LGT RAIN  37  35  92 W17       29.42R WCI  27
6HR MIN TEMP:  37; 6HR MAX TEMP:  43; 6HR PCP: TRACE;

SOUTH HAVEN    CLOUDY    35  35  99 NW17G25   29.52R FOG     WCI  25
$$
MIZ016>042-011900-
NORTHERN LOWER MICHIGAN

CITY           SKY/WX    TMP DP  RH WIND       PRES   REMARKS
ALPENA         LGT SNOW  24  22  91 N23       29.43F VSB 1   WCI   9
6HR MIN TEMP:  24; 6HR MAX TEMP:  36; 6HR PCP:  0.18;

BEAVER ISLAND  CLOUDY    21  19  94 NE15G21   29.53R WCI   7
6HR MIN TEMP:  21; 6HR MAX TEMP:  28;

BELLAIRE       HVY SNOW  24  23  94 N12       29.46F VSB<1/4 WCI  13
6HR MIN TEMP:  24; 6HR MAX TEMP:  36;

CADILLAC       SNOW      31  30  95 N9        29.36R VSB 1/2 WCI  23
CHARLEVOIX     CLOUDY    23  23  98 NE12G21   29.51F WCI  12
FRANKFORT      LGT SNOW  28  26  92 N12G20    29.46R VSB 1   WCI  18
GAYLORD        SNOW      23  20  88 NE8G21    29.41S VSB 1/4 WCI  14
6HR MIN TEMP:  23; 6HR MAX TEMP:  35; 6HR PCP:  0.34;

GRAYLING       HVY SNOW  25  23  91 N17G23    29.41S VSB<1/4 WCI  12
HARBOR SPRINGS SNOW      21  19  89 NE9G23    29.48S VSB 1/2 WCI  11
HOUGHTON LAKE  LGT SNOW  31  29  92 N15       29.36F VSB 3/4 WCI  20
6HR MIN TEMP:  32; 6HR MAX TEMP:  38; 6HR PCP:  0.29;

MANISTEE       LGT SNOW  30  28  92 N9        29.45R FOG     WCI  22
OSCODA         LGT SNOW  32  30  94 N14G20    29.38S WCI  22
6HR MIN TEMP:  32; 6HR MAX TEMP:  38; 6HR PCP:  0.03;

PELLSTON       FOG       21  17  84 NE16      29.50F VSB 1/4 WCI   7
6HR MIN TEMP:  21; 6HR MAX TEMP:  32; 6HR PCP:  0.19;

ROGERS CITY    CLOUDY    22  20  93 N16G22    29.49S WCI   8
TRAVERSE CITY  LGT SNOW  28  25  88 NE17      29.44S VSB 3/4 WCI  16
6HR MIN TEMP:  28; 6HR MAX TEMP:  38; 6HR PCP:  0.23;

$$
MIZ007>008-015-011900-
EASTERN UPPER MICHIGAN

CITY           SKY/WX    TMP DP  RH WIND       PRES   REMARKS
KINROSS        SNOW      17  14  88 MISG      29.53F VSB 1/4
6HR MIN TEMP:  17; 6HR MAX TEMP:  24; 6HR PCP: TRACE;

MACKINAC ISLAN CLOUDY    19  19 100 NE22G28   29.50F WCI   2
6HR MIN TEMP:  18; 6HR MAX TEMP:  27; 6HR PCP:  0.39;

NEWBERRY       LGT SNOW  19  16  89 N18G24    29.56S WCI   3
6HR MIN TEMP:  18; 6HR MAX TEMP:  23;

S. S. MARIE    HVY SNOW  17  12  80 NE14G24   29.54F VSB 1/4 WCI   3
6HR MIN TEMP:  16; 6HR MAX TEMP:  24; 6HR PCP:  1.18;

MUNISING         N/A     22  19  89 N24       29.66R WCI   5
6HR MIN TEMP:  22; 6HR MAX TEMP:  25; 6HR PCP:  0.09;

$$
MIZ004>006-011>014-085-011900-
CENTRAL UPPER MICHIGAN

CITY           SKY/WX    TMP DP  RH WIND       PRES   REMARKS
MANISTIQUE     LGT SNOW  21  20  95 N21G30    29.55F WCI   6
6HR MIN TEMP:  21; 6HR MAX TEMP:  26;

ESCANABA       LGT SNOW  23  20  88 N14G22    29.59F VSB 3/4 WCI  11
6HR MIN TEMP:  23; 6HR MAX TEMP:  26; 6HR PCP:  0.01;

MENOMINEE      LGT SNOW  24  21  88 N17G25    29.59R VSB 3/4 WCI  11
6HR MIN TEMP:  24; 6HR MAX TEMP:  27; 6HR PCP: TRACE;

SAWYER-GWINN   SNOW      19  16  86 N20G30    29.65S VSB 1/2 WCI   4
$$
MIZ001>003-009>011-084-011900-
WESTERN UPPER MICHIGAN

CITY           SKY/WX    TMP DP  RH WIND       PRES   REMARKS
IRON MOUNTAIN  MIX PCPN  23  15  71 N21G32    29.63R WCI   8
6HR MIN TEMP:  23; 6HR MAX TEMP:  25; 6HR PCP: TRACE;

HOUGHTON       FLURRIES  20  12  71 NE17G28   29.77S WCI   5
6HR MIN TEMP:  19; 6HR MAX TEMP:  21; 6HR PCP: TRACE;

COPPER HARBOR    N/A     21  15  78 E25       29.82S WCI   4
6HR MIN TEMP:  21; 6HR MAX TEMP:  23;

IRONWOOD       LGT SNOW  21  17  84 N15G23    29.82R FOG     WCI   8
6HR MIN TEMP:  21; 6HR MAX TEMP:  21;

$$

ABBREVIATIONS USED IN REMARKS
   TC - TEMPERATURE IN CELSIUS
  WCI - WIND CHILL INDEX
   HX - HEAT INDEX
  VSB - VISIBILITY





USA.gov is the U.S. government's official web portal to all federal, state and local government web resources and services.